Theta_e
299 301 302 303 303 303 303 309 309 310 313 313 312 312 312 312 312 311 314 314 315 313 315 313 313 314 315 313 313 315 315 315 312 313 311 311 313 314 314 315 316 313 312 313
298 300 300 302 303 302 301 301 304 305 311 313 313 312 312 312 313 312 313 313 314 314 314 316 314 315 312 312 314 315 313 315 314 315 313 310 312 313 313 314 314 314 313 314
299 300 300 301 303 303 302 300 303 300 303 305 311 312 313 312 311 312 312 312 313 314 314 314 314 315 311 310 311 311 314 316 314 313 314 313 313 312 313 313 314 314 314 312
300 299 300 300 303 303 302 300 301 300 304 303 305 310 309 312 310 307 309 312 313 313 312 313 314 314 311 310 308 311 313 317 316 315 315 315 315 314 313 314 313 314 314 314
300 299 300 299 301 303 302 300 301 300 299 300 303 308 305 311 303 306 306 310 306 306 310 308 309 308 312 312 308 310 308 312 309 310 315 315 316 315 314 314 313 313 313 310
300 300 300 300 300 301 301 301 301 301 300 301 304 303 304 304 302 300 302 304 305 306 303 303 303 304 304 305 306 306 305 309 307 309 312 311 312 311 313 314 313 309 312 301
299 300 300 300 300 301 302 302 302 302 304 304 304 303 302 303 303 302 300 302 303 300 301 302 302 302 302 303 303 304 306 307 309 310 310 314 305 303 305 303 302 300 300 299
299 299 300 300 300 300 300 302 302 302 304 303 303 303 303 301 301 301 301 301 300 301 302 303 304 304 305 304 303 304 304 306 308 310 310 308 304 303 303 305 302 300 298 297
299 299 299 299 300 300 300 301 301 302 302 303 302 302 302 302 302 302 301 300 301 302 303 303 306 307 305 305 304 304 303 303 305 306 308 309 303 300 301 302 303 299 298 296
298 298 299 299 300 300 300 300 300 301 301 302 302 302 303 302 302 301 301 301 301 301 301 302 303 303 302 303 304 303 303 303 303 305 305 304 300 299 300 302 302 300 297 296
294 296 298 298 299 300 300 299 300 300 301 301 301 302 302 302 301 301 301 300 299 300 300 300 300 300 299 300 301 303 303 304 304 304 303 303 299 299 300 298 299 297 295 295
292 294 297 299 299 299 299 299 300 300 300 300 300 301 301 301 301 301 301 301 301 301 299 298 298 298 297 300 299 300 301 301 302 301 301 302 298 299 296 295 295 294 294 294
292 293 296 299 299 298 299 299 299 299 298 299 299 299 300 300 301 301 300 300 301 301 301 301 298 297 297 296 296 297 299 299 298 298 300 300 298 297 295 294 294 293 293 293
295 294 294 297 298 299 298 298 298 298 299 300 296 298 299 299 299 300 300 299 300 299 300 300 295 295 298 295 296 295 296 297 297 297 298 299 300 298 295 294 293 292 291 291
295 294 295 297 299 298 299 298 298 298 298 298 295 296 295 297 298 299 299 299 299 298 297 295 293 297 294 294 292 292 296 295 295 295 293 296 294 294 293 292 291 290 290 290
295 295 296 297 298 298 297 297 297 297 296 297 297 292 292 294 296 297 298 298 298 298 297 298 297 297 297 291 292 296 296 296 295 291 291 292 292 291 290 290 289 289 289 288
296 296 296 297 297 297 296 295 296 297 297 296 294 293 291 293 293 294 295 295 296 297 297 296 295 295 296 293 290 290 290 290 290 290 290 290 289 289 288 288 287 287 287 286
294 296 296 295 295 296 295 296 296 296 295 295 294 292 292 292 293 293 293 294 294 294 295 294 295 293 295 291 287 286 287 288 287 287 287 287 286 286 285 285 285 285 285 284
293 293 295 295 294 294 294 294 295 295 294 295 293 292 293 292 292 292 293 294 293 293 294 294 293 292 291 285 284 283 284 284 285 285 285 284 284 284 283 283 283 283 283 283
293 292 292 291 292 292 292 293 293 293 292 293 293 292 289 291 292 292 292 292 292 288 292 292 290 291 280 280 281 282 283 283 283 284 283 283 282 282 282 281 281 281 281 281
293 292 291 291 291 292 291 291 291 291 291 291 290 290 289 290 291 292 292 289 289 289 290 292 291 289 279 279 280 281 281 281 281 281 281 280 280 280 280 280 280 280 280 280
292 291 290 290 290 290 286 289 289 290 291 289 291 289 290 289 290 291 289 288 287 288 289 288 288 279 279 279 279 279 280 280 280 280 280 280 280 280 280 280 280 280 279 279
291 291 291 290 289 285 285 283 285 289 289 288 288 289 289 289 290 291 288 290 289 289 289 287 279 280 279 279 279 279 279 280 280 279 279 278 278 278 278 278 278 278 278 278
292 292 289 288 287 286 287 286 287 284 287 287 289 288 290 289 288 288 286 288 285 286 285 283 277 280 279 279 279 278 278 278 277 277 277 277 277 277 277 277 277 277 277 277
290 290 289 289 284 283 282 283 284 283 284 286 288 287 288 289 287 285 289 285 285 284 283 280 280 279 279 278 278 277 277 277 277 277 277 277 277 277 277 277 277 277 276 276
287 284 286 284 285 283 283 283 282 282 283 285 287 285 286 287 286 286 285 285 284 281 280 280 279 278 278 277 277 277 277 277 277 277 276 276 276 276 276 277 277 276 276 276
283 281 280 281 282 281 280 281 280 282 283 287 287 286 286 281 283 283 282 282 281 280 279 278 278 277 277 277 277 277 276 276 276 276 276 276 276 276 276 276 276 276 276 276
Wind_Speed
15 15 15 11 11 12 2 21 7 29 42 17 20 17 20 12 9 7 1 3 3 4 9 11 9 8 4 8 6 5 4 1 5 6 3 4 2 7 7 5 5 4 4 3
13 12 17 9 8 10 2 2 9 12 30 13 14 13 21 18 6 8 6 5 3 1 4 4 6 7 4 8 2 1 3 4 3 2 2 1 4 5 3 3 2 6 5 3
10 11 16 11 6 4 4 3 2 3 8 3 18 23 17 23 3 4 5 3 5 4 2 2 2 4 3 4 5 4 5 2 5 7 4 5 5 6 7 6 3 6 10 5
7 10 11 18 6 6 2 1 0 1 2 2 2 18 7 17 5 4 6 4 1 4 4 5 4 5 4 4 1 2 3 1 4 6 5 2 4 4 7 9 6 6 2 2
5 10 9 17 8 8 3 2 1 2 1 2 5 10 2 13 4 2 2 5 3 4 4 2 4 3 3 3 2 3 3 2 2 3 1 5 3 7 7 7 8 11 8 3
8 8 10 13 16 6 3 4 3 1 2 2 2 2 3 6 12 6 5 5 5 4 5 12 10 10 9 4 4 3 3 5 3 6 2 5 8 6 11 11 1 1 5 4
9 6 10 8 12 1 3 4 5 2 2 3 3 3 3 10 5 7 3 8 5 8 22 19 15 16 13 10 8 5 5 5 3 2 4 7 3 4 2 8 6 10 11 7
8 9 9 8 7 8 3 6 3 3 2 7 9 9 10 15 16 7 8 6 11 22 7 3 4 2 2 3 3 3 3 2 2 3 4 2 3 2 3 1 3 4 9 6
9 10 12 9 8 6 5 8 6 5 5 2 14 10 14 8 5 4 7 14 14 4 2 2 2 3 3 4 3 2 3 3 1 3 2 3 2 3 3 1 2 9 5 5
8 11 13 10 6 6 3 6 6 5 5 12 15 3 5 9 5 4 6 7 3 1 2 2 2 2 2 3 4 4 3 2 1 1 0 1 4 6 3 3 3 14 7 3
12 12 11 11 7 3 6 8 9 6 4 8 6 10 9 12 9 4 13 5 1 1 2 3 2 3 2 3 2 4 3 3 2 2 1 4 11 5 2 5 13 10 5 1
12 11 10 9 7 6 5 4 13 9 7 7 13 12 11 10 5 16 13 3 5 6 3 2 3 2 1 1 2 3 1 2 3 2 2 2 22 2 10 9 11 7 4 4
13 10 8 6 6 6 7 2 8 13 10 12 9 8 10 10 9 13 6 2 3 3 4 3 2 3 2 2 3 2 2 2 3 3 1 6 19 7 5 6 8 6 5 8
13 10 7 8 6 3 4 2 9 11 8 3 6 8 9 8 8 6 6 11 9 11 7 4 2 3 4 1 2 2 2 3 3 0 2 7 13 8 8 9 5 2 5 6
11 8 6 5 3 1 6 1 6 9 6 4 6 9 9 4 5 5 7 9 9 5 4 3 1 3 3 2 2 1 6 4 3 3 6 3 8 10 10 6 3 6 6 5
7 6 4 3 4 1 2 4 2 3 12 5 3 4 8 9 7 8 8 5 4 4 3 2 3 3 2 2 2 2 8 7 2 3 6 7 6 4 2 2 6 7 6 8
11 7 6 3 3 2 7 4 3 9 10 4 5 3 4 8 8 8 6 6 3 3 3 2 5 3 5 1 2 5 8 5 2 0 4 3 3 2 4 5 6 8 8 8
8 11 7 10 13 14 13 10 8 7 5 3 2 2 3 4 4 4 5 4 3 2 3 3 3 5 2 2 8 8 8 5 2 5 4 2 1 2 6 7 8 9 7 9
12 11 4 5 3 6 6 5 5 5 5 3 2 3 2 3 3 4 3 2 2 1 2 3 4 2 3 3 8 6 6 3 3 3 3 2 3 5 7 9 8 9 9 11
10 9 5 5 4 6 3 2 2 3 4 3 3 4 3 3 4 2 4 0 1 2 1 6 1 1 6 3 2 2 2 3 3 3 2 4 2 5 7 8 10 11 13 15
7 7 5 6 3 3 3 3 4 3 2 3 3 5 3 3 2 2 1 2 1 1 2 2 2 2 2 4 5 5 5 4 4 3 2 4 7 10 12 13 14 15 16 17
4 3 3 2 3 4 3 2 2 0 2 2 1 3 5 3 3 3 3 3 2 2 5 1 2 1 3 3 4 3 2 1 2 4 6 8 10 12 15 17 19 19 20 21
6 2 1 1 1 3 3 2 2 1 2 3 3 2 2 2 2 4 2 3 3 7 1 3 1 7 5 5 3 1 2 4 6 8 10 13 15 17 18 21 21 23 25 25
2 2 3 3 2 2 2 2 3 1 2 5 4 4 2 2 1 2 3 1 3 2 3 3 2 8 4 1 3 5 8 11 13 15 16 17 17 19 20 21 23 24 26 25
2 2 2 1 3 4 1 4 3 2 6 4 3 3 2 2 1 1 2 2 3 1 1 1 10 6 2 3 6 10 13 16 17 18 19 20 21 23 25 23 24 25 26 26
1 4 1 3 1 2 2 3 2 2 5 4 1 2 1 2 1 2 3 1 2 1 2 10 5 1 5 9 12 14 16 18 19 20 21 22 23 23 25 25 24 23 23 24
3 4 5 4 4 4 2 1 1 1 2 1 0 2 3 1 2 1 2 2 2 9 7 2 4 7 9 11 11 13 16 18 19 20 20 21 22 22 23 24 22 22 23 24
Wind_Direction
302 306 307 326 317 341 62 183 202 189 190 185 202 214 204 216 151 180 142 303 308 186 152 181 190 199 76 3 135 187 215 232 169 205 103 71 161 204 170 145 219 213 157 185
303 312 307 313 301 330 220 210 187 188 182 190 197 208 212 227 196 168 169 210 242 325 162 162 199 115 52 29 4 181 150 217 129 58 34 94 208 187 260 262 309 197 154 203
309 327 316 328 286 264 5 174 187 199 213 280 204 194 202 211 101 143 212 187 124 130 229 277 168 106 61 61 56 10 357 318 199 191 183 128 173 194 203 207 203 225 231 160
317 335 315 311 340 219 18 353 336 275 166 188 229 185 182 182 143 44 25 22 223 167 181 183 195 91 117 75 62 70 56 254 340 338 21 77 166 187 208 218 237 244 234 273
304 341 347 313 296 213 191 127 281 74 18 123 55 175 179 188 124 91 146 129 55 81 132 87 195 89 105 119 34 74 15 184 52 289 344 328 253 231 239 236 226 244 248 140
320 316 342 346 330 235 171 139 140 100 25 40 77 65 118 128 133 30 60 121 112 107 115 96 86 83 69 104 134 115 136 141 107 261 85 58 285 238 232 240 209 210 232 110
328 323 338 338 324 347 139 155 129 88 90 64 80 116 107 127 83 120 114 107 101 129 121 99 83 79 78 83 68 58 137 150 164 185 100 214 47 352 227 95 66 97 104 112
342 338 338 334 328 309 202 177 131 109 89 106 116 109 111 102 93 90 89 61 132 132 121 105 121 91 113 78 72 90 66 133 164 207 195 86 141 179 139 109 146 131 120 113
357 344 342 329 321 315 229 184 147 97 120 181 131 120 132 121 100 84 94 108 127 145 102 85 150 151 118 143 123 132 119 51 106 144 207 221 91 111 97 170 196 185 133 116
348 333 347 349 327 298 296 165 157 112 95 139 140 100 143 138 111 89 117 138 121 115 151 98 125 115 97 149 151 159 144 130 185 250 209 295 167 146 160 116 187 175 149 153
340 336 340 353 340 310 254 203 124 122 93 105 115 124 114 135 130 148 140 108 21 156 113 120 157 131 181 152 118 165 149 163 154 121 96 254 147 114 171 143 136 147 154 171
340 333 331 341 343 341 238 214 186 122 119 115 123 116 122 120 90 122 154 102 135 174 93 52 94 97 79 70 168 16 132 110 149 158 175 142 170 116 142 149 151 147 185 242
338 333 331 305 321 304 335 243 214 191 114 109 103 101 126 131 128 133 123 123 109 101 93 102 107 109 97 136 243 88 98 83 96 64 134 157 181 157 152 165 169 197 243 267
342 334 325 314 320 285 309 39 151 134 119 115 89 115 118 112 129 121 95 138 129 129 98 67 92 108 41 32 116 114 136 117 109 344 213 175 196 190 185 176 184 252 269 274
340 335 333 343 262 187 205 220 191 128 103 83 104 109 53 90 126 131 122 128 129 98 69 78 187 94 97 49 48 289 171 175 157 214 28 184 74 166 174 175 254 286 285 279
357 337 338 12 152 90 111 92 78 192 105 98 102 96 61 83 115 131 127 140 112 81 104 108 102 143 117 120 202 118 77 120 209 111 77 107 143 179 178 274 291 290 296 294
33 19 31 146 138 126 69 69 123 137 114 89 129 120 82 98 85 88 102 135 129 140 126 191 127 160 151 158 207 102 94 113 114 16 135 155 147 295 321 316 303 305 309 307
25 81 68 77 77 93 83 84 124 111 80 88 92 74 106 112 104 96 133 117 123 127 129 131 146 145 180 222 100 98 99 123 95 41 41 82 15 309 311 322 317 316 314 302
31 29 55 67 58 58 65 77 77 76 66 74 73 127 103 99 72 96 87 117 118 135 201 177 157 152 207 56 76 72 54 87 349 27 41 16 355 339 325 326 320 316 314 306
8 3 6 38 54 85 89 20 36 45 37 63 76 115 113 146 156 86 116 120 73 156 162 136 178 101 103 95 106 100 74 44 22 102 147 345 341 322 318 316 311 307 305 304
355 4 38 92 89 17 37 32 30 9 71 48 57 56 120 131 144 116 43 166 118 163 229 192 195 199 97 98 107 108 104 88 66 56 1 319 312 315 312 310 306 303 302 300
345 9 31 95 358 25 64 38 10 322 71 71 49 82 72 146 131 114 194 146 75 219 141 116 246 130 151 150 135 124 104 64 357 329 320 311 307 307 304 304 303 302 299 298
303 287 275 85 34 42 137 216 288 161 112 145 145 110 119 125 138 93 122 171 186 133 178 213 155 135 152 145 143 145 312 306 308 311 309 306 304 301 300 299 299 298 295 295
283 225 252 195 186 250 56 23 39 84 85 144 136 124 138 125 133 133 150 180 105 204 216 204 168 159 155 109 1 334 316 310 314 316 313 312 311 309 306 303 303 300 297 298
288 311 265 115 112 68 90 106 99 103 142 137 122 115 194 150 133 178 111 56 247 139 168 121 139 154 173 307 316 316 315 318 319 321 320 318 316 313 310 310 305 302 301 299
3 39 19 25 249 108 88 75 98 119 156 160 115 115 109 191 130 130 206 121 199 172 83 124 143 231 310 319 320 318 316 316 316 316 316 314 314 313 312 311 311 309 302 298
48 37 36 19 39 32 38 28 25 80 132 290 11 173 186 80 97 134 34 87 67 113 112 145 284 313 317 313 312 313 313 314 314 313 313 312 313 312 310 311 315 312 308 307